Погода в Сухане

Погода в Сухане : погода сейчас, прогноз погоды и архив. Всё, что Вы хотите узнать о погоде в Сухане!

Поиск расширенной информации на нашем сайте:

Другие новости

Новости СМИ2

Главная страница сайта

Новости сайта

03.07.2017

Напоминаем, что на нашем специализированном сайте Метеоцентр.Азия вы можете получить высокодетализированные автоматические прогнозы погоды по пунктам России, СНГ и мира в авиационном формате (включающие направление и скорость ветра, видимость, явления погоды, количество и форму облачности, нижнюю и верхнюю границу облачности).


Погода в Сухане - сегодня

Время (UTC), дата Ветер
(°,м/с) 
Видим.   Явления Облачность Т
(°С)
Тd
(°С)
f(%) Тe
(°С)
Pmin
(гПа)
dP
(гПа)
Po
(мм)
O2
(г/м3)
Тmin Tmax R s Состояние
почвы
09 15.08.17 350 (С) 20000 м  {ливн. осадки}  10/10 300 м кучево-дожд. 
[Cb cap]
+11.7 +8.6 81 +11  1007.8  2.9  749  288           
12 15.08.17 350 (С) 20000 м  {ливн. осадки}  10/10 600 м кучево-дожд. 
[Cb cap]
+8.7 +7.4 92 +8  1010.9  2.8  751  292    +18.9     
15 15.08.17 350 (С) 20000 м    10/10 600 м кучево-дожд. 
[Cb cap]
+7.5 +6.7 95 +7  1013.3  2.4  753  294           
18 15.08.17 340 (С) 20000 м  {ливн. осадки}  10/10 600 м 
[Sc]
+7 +5.9 93 +8  1014.9  1.6  754  295           
21 15.08.17 тихо ()   20000 м    10/10 600 м 
[Sc]
+6.6 +5.2 91 +7  1016.7  1.8  755  296           
00 16.08.17 330 (СЗ) 20000 м    10/10 600 м 
[Sc]
+6.5 +5.1 91 +6  1017.6  0.9  756  297  +6.5    0.2    влажная 
03 16.08.17 270 (З) 20000 м    10/10 600 м 
[Sc]
+7.8 +5.8 87 +8  1018.3  0.7  757  295           
06 16.08.17 250 (З) 20000 м    9/9 600 м кучево-дожд. 
[Cb cap]
+10.6 +5.3 70 +10  1018  -0.3  756  293           
09 16.08.17 270 (З) 20000 м    9/9 600 м кучево-дожд. 
[Cb cap]
+11 +5.3 68 +11  1017.6  -0.4  756  292           
12 16.08.17 270 (З) 20000 м    9/9 600 м кучево-дожд. 
[Cb cap]
+10.5 +6.7 77 +11  1017.6  756  292    +11.4       
15 16.08.17 190 (Ю) 20000 м    ясно 
+8.3 +5.9 85 +8  1017.5  -0.1  756  295           
18 16.08.17 180 (Ю) 20000 м    ясно 
+7.8 +5.8 87 +8  1017.3  -0.2  756  295           
21 16.08.17 тихо ()   20000 м    3/3 1000 м 
[Sc]
+5.9 +5 94 +6  1016.5  -1  755  297           
00 17.08.17 тихо ()   20000 м    3/3 1000 м 
[Sc]
+9.6 +5 73 +10  1015.6  -0.7  755  293  +5.5        влажная 
03 17.08.17 240 (ЮЗ) 20000 м    ясно 
+15.8 +4.5 47 +16  1013.9  -1.5  754  286           
06 17.08.17 220 (ЮЗ) 20000 м    8/8 600 м 
[Cu Sc]
+18.2 +5.5 43 +19  1012.4  -1.4  752  283           
09 17.08.17 190 (Ю) 20000 м    8/8 600 м 
[Cu Sc]
+18.2 +7.8 51 +19  1012  -0.4  752  283           
12 17.08.17 200 (Ю) 20000 м    6/6 1000 м 
[Sc diur, vesp]
+14.4 +8.6 68 +15  1011.9  -0.2  752  286    +19.2       
15 17.08.17 тихо ()   20000 м    ясно 
+12.3 +7.8 74 +12  1011.4  -0.5  752  288           
18 17.08.17 тихо ()   20000 м    6/6 1000 м 
[Sc]
+5.2 +4.7 97 +5  1011.5  -0.3  751  296           
21 17.08.17 тихо ()   20000 м    9/9 1000 м 
[Sc]
+6.3 +5.6 95 +6  1011.3  -0.2  751  295           
00 18.08.17 тихо ()   20000 м    9/9 1000 м 
[Sc]
+9.7 +7.8 88 +10  1010.9  -0.2  751  291  +5.2  -1.1      влажная 
03 18.08.17 200 (Ю) 20000 м    8/5 1000 м средняя 
[Sc|Ac trans]
+16.5 +8.8 60 +18  1010.1  -0.5  751  284           
06 18.08.17 270 (З) 20000 м    8/6 1000 м средняя 
[Sc|Ac trans]
+18.5 +4.8 40 +19  1009.2  -0.9  750  282           
09 18.08.17 270 (З) 20000 м    9/9 1000 м 
[Sc]
+18.4 +6.4 45 +19  1008.8  -0.3  750  282           
Время (UTC), дата Ветер
(°,м/с) 
Видим.   Явления Облачность Т
(°С)
Тd
(°С)
f(%) Тe
(°С)
Pmin
(гПа)
dP
(гПа)
Po
(мм)
O2
(г/м3)
Тmin Tmax R s Состояние
почвы

Для получения пояснительной информации подведите курсор к названию столбца.

ПОГОДА в Сухане - архив

Всё, что Вы хотите узнать о погоде в Сухане - удобно и подробно!

Выберите нужную дату (начиная с 1 января 2015* года) и нажмите кнопку "Найти".
Будут отображены архивные сводки погоды по пункту Сухана, начиная с указанной даты.


Отображать данные в формате CSV (для использования в таблицах Excel)


Внимание! Наш архив погоды предназначен исключительно для личного некоммерческого использования в познавательных целях. Если Вам необходимы официальные справки о состоянии погоды (для производственных, юридических, коммерческих и т.п. целей), обращайтесь в органы Росгидромета.

*Примечание: данная дата относится к архиву по метеостанциям СССР (Россия, СНГ, Балтия).
Архив по метеостанциям Зарубежной Европы и Азии (кроме Китая) хранится 10 дней, по другим регионам земного шара (Китай, Африка, Америка, Австралия, Океания) - 1 день.

Сухана - район местоположения метеостанции


Название, широта, долгота, высота метеостанции:
Сухана 68.62°ш. 118.33°д. 77 м над ур. моря [Российская Федерация]

Дополнительная информация

В oтличие oт бoльшинства пoгoдных сайтoв мы публикуем пoдрoбную метеoинфoрмацию в детальнoм прoфессиoнальнoм фoрмате.

Характеристики температуры и влажнoсти вoздуха измеряются на высoте 2 м в тени вдали oт зданий и деревьев.
Скoрoсть ветра измеряется на высoте 10 м (на урoвне рoста челoвека скoрoсть ветра ниже в 1.5-2 раза). Если метеoстанция нахoдится в гoрoде или в лесу, тo скoрoсть ветра занижена на 2-4 м/с пo сравнению с oткрытым местoм. Скoрoсть ветра над акватoриями крупных рек и oзёр, а также на вершинах хoлмoв на 2-5 м/с выше, чем в oбычных услoвиях.
Атмoсфернoе давление в разных тoчках местнoсти мoжет значительнo oтличаться oт давления на метеoстанции, в зависимoсти oт услoвий рельефа (при пoдъёме на 10 м давление пoнижается примернo на 1 мм рт.ст.).